COSMOS 1275 DEB

Satellite information

Favourite Embed

Satellite Type and Status

DEBRISIN ORBIT

Key statistics

Satellite COSMOS 1275 DEB at a glance.

Uptime

16165

Days in orbit

Revolutions

≈ 14.6

Per day

Orbit

LEO

Low Earth Orbit

Inclination

82.9

Latest

Satellite identification and parameters

Extended collection of information and parameters for COSMOS 1275 DEB.

Object identification

Identified? True

Debris? True

Object name: COSMOS 1275 DEB

International designator: 1981-053HJ

Object number (NORAD): 13814

Object ID (CCSDS): 13814

Country: COMMONWEALTH OF INDEPENDENT STATES (CIS)

Current information (Y/N): Y

RCS size: SMALL

Orbital parameters

Period: 98.464 minutes

Inclination: 82.9235 deg

SMA: 7063.377 km

Apoapsis: 688.547 km

Periapsis: 681.937 km

RAAN: 149.6727 deg

Eccentricy: 0.00046788

Argument of periapsis: 288.4411 deg

Mean anomaly: 129.8864 deg

Mean motion: 14.62460572 rev/day

Mean motion (dot): 0.00014539 rev/day2

B* drag term: 0.0028633582 1/REarth

Two-line elements (TLE)

Creation date: Sept. 6, 2025, 2:09 a.m.

Reference frame: TEME

Reference center: EARTH

Epoch: Sept. 5, 2025, 5:34 p.m. UTC

TLE line 0: 0 COSMOS 1275 DEB

TLE line 1: 1 13814U 81053HJ 25248.73247517 .00014539 00000-0 28634-2 0 9998

TLE line 2: 2 13814 82.9235 149.6727 0004679 288.4411 129.8864 14.62460572197527

Live tracking on map

Real-time ground track for satellite COSMOS 1275 DEB.

In-orbit conjunctions

A list of the most updated potential collisions computed for object COSMOS 1275 DEB.

Target Orbit TCA Probability of collision Miss distance Type
KITSAT 3 SSO 2025-03-23 01:29:55 0.0005369085 29.0 (m) PAYLOAD

Associated space launch

Navigation satellite providing location information for the Tsiklon-B navigation system

COSMOS 1275 DEB was lifted into orbit during the mission ‘Kosmos-3M | Parus 27’, on board a Kosmos-3M space rocket.

The launch took place on June 4, 1981, 3:41 p.m. from 132/2.

For more information about the launch, click the button.

Launch to space Kosmos-3M | Parus 27
Kosmos-3M | Parus 27

Agency: N/A

Status: Launch Successful

Launch date: June 4, 1981, 3:41 p.m. UTC

Rocket: Kosmos-3M

Launch pad: 132/2

Location: Plesetsk Cosmodrome, Russian Federation

...

Latest news about this satellite

There are no fresh news available about this satellite. Check back as we update our databases every day.


Newsletter sign-up

Weekly statistics, charts and insights to help you stay on top of the space industry.